User: anonymous   Login
Location: Clyde
(45.1830°S, 169.3170°E)
Time: 19:26:42
(UTC+13:00)
Language:

CZ-2C R/B - Orbit

View from above orbital plane
View from above orbital plane
View from above satellite
View from above satellite

Ground track
Ground track

The orbit data is extracted from the following two-line orbital elements,

1 31114U 07010B   19290.10327354 -.00000012  00000-0  13424-4 0  9996
2 31114  98.2906 153.9484 0058568 258.9848 100.4738 14.19300173648354
Epoch (UTC): 17 October 2019 02:28:42
Eccentricity: 0.0058568
inclination: 98.2906°
perigee height: 785 km
apogee height: 870 km
right ascension of ascending node: 153.9484°
argument of perigee: 258.9848°
revolutions per day: 14.19300173
mean anomaly at epoch: 100.4738°
orbit number at epoch: 64835

The dashed part of the orbit path shows where the satellite is in the earth's shadow,  

DLR